Regional Weather Roundup
Issued by NWS

Home | Current Version | Previous Version | Graphics & Text | Print | Product List | Glossary On
Versions: 1 2 3 4 5 6 7 8 9 10 11 12 13 14 15 16 17 18 19 20 21 22 23 24 25 26 27 28 29 30 31 32 33 34 35 36 37 38 39 40 41 42 43 44 45 46 47 48 49 50
000
ASUS43 KBIS 042220
RWRND

NORTH DAKOTA REGIONAL WEATHER ROUNDUP
NATIONAL WEATHER SERVICE BISMARCK ND
400 PM CST WED MAR 04 2015

NOTE: "FAIR" INDICATES FEW OR NO CLOUDS BELOW 12,000 FEET WITH NO
SIGNIFICANT WEATHER AND/OR OBSTRUCTIONS TO VISIBILITY.


NDZ001>003-009>011-017-042300-
NORTHWEST NORTH DAKOTA

CITY           SKY/WX    TMP DP  RH WIND       PRES   REMARKS
WILLISTON        N/A      5 -11  47 W7        30.30F WCI  -7
MINOT          SUNNY     -1 -13  56 NW9       30.32R WCI -16
MINOT AFB      SUNNY     -1 -10  65 NW12      30.32R WCI -19
$$

NDZ018>021-031>035-040>046-042300-
SOUTHWEST NORTH DAKOTA

CITY           SKY/WX    TMP DP  RH WIND       PRES   REMARKS
BISMARCK       SUNNY      6 -10  47 NW13G18   30.34S WCI -10
DICKINSON      SUNNY     11 -10  38 NW10      30.20F WCI  -3
GARRISON         N/A      0 -11  59 NW10      30.31S WCI -16
HETTINGER ARPT SUNNY     12 -10  36 NW12G21   30.22F WCI  -2
$$

NDZ004>008-012>016-024-026-027-054-042300-
NORTHEAST NORTH DAKOTA

CITY           SKY/WX    TMP DP  RH WIND       PRES   REMARKS
GRAND FORKS    PTSUNNY    3  -9  57 NW15G21   30.35R WCI -16
GRND FRKS AFB  SUNNY      3 -11  53 NW15G21   30.34R WCI -16
DEVILS LAKE    SUNNY      0 -13  55 NW15      30.31S WCI -20
$$

NDZ022-023-025-028>030-036>039-047>053-042300-
SOUTHEAST NORTH DAKOTA

CITY           SKY/WX    TMP DP  RH WIND       PRES   REMARKS
FARGO          CLOUDY     6  -6  57 NW18      30.35R WCI -13
JAMESTOWN      MOSUNNY    1 -10  60 NW15      30.32R WCI -18
$$



USA.gov is the U.S. government's official web portal to all federal, state and local government web resources and services.